INMARSAT 3-F3

Last updated on Thu Oct 30 2025 00:02:47 GMT+0000 (Coordinated Universal Time)

1 24674U 96070A 25302.36917764 -.00000190 00000+0 00000+0 0 9999 2 24674 9.8182 51.8192 0008367 177.8028 221.3420 0.99979877105607
UTC large
Height (km)
Speed (km/s)
/
Latitude / Longitude
Inclination (degrees)
Orbital Period (minutes)
Azimuth
Elevation
Range (km)
Doppler Factor

Next 0 passes for location: London (51.5072 / 0.1276)

Sorry there are no passes over London.